Theta_e
352 352 350 348 347 349 350 346 340 337 335 334 334 334 333 332 331 332 334 334 333 332 331 330 330 331 331 332 333 333 332 333 333 332 331 330 330 329 329 329 329 329 330 330 330 331 332 332 332 332 333 335 335 335 335 334 332 331 329 326 323 324 324 324 325 325 325 323 322 322 322 322 323 323 322 322 324 325 324 320 317 317 317 316 316
351 350 347 345 345 347 349 346 340 336 335 334 334 333 333 332 332 332 333 332 331 330 330 330 331 332 333 333 333 333 333 333 332 331 330 330 329 329 329 329 329 329 330 330 329 330 331 332 332 331 332 333 333 334 334 334 333 331 330 327 326 327 326 324 324 324 325 324 323 322 322 322 323 324 323 323 323 324 324 320 317 317 317 317 317
351 348 344 343 344 346 348 345 339 336 335 334 334 333 333 332 332 332 332 330 329 329 330 331 333 334 334 334 334 334 334 332 331 331 331 330 329 329 329 329 329 329 329 328 328 330 332 332 330 330 331 331 330 331 331 333 333 332 331 329 328 328 328 326 324 324 325 325 324 323 323 322 323 324 325 324 324 324 324 320 317 317 317 317 317
350 346 343 344 345 346 345 343 339 335 334 334 334 334 333 332 332 332 332 330 329 330 331 332 333 334 334 334 334 333 332 331 331 331 331 331 330 329 329 329 329 329 328 328 328 330 331 330 328 328 330 330 329 329 329 330 331 331 331 330 330 329 329 327 326 325 325 325 325 324 324 324 324 324 325 324 324 324 323 320 318 317 317 317 317
349 344 343 344 344 344 342 340 337 335 334 334 333 333 333 333 332 331 332 332 331 331 331 332 332 333 333 333 333 332 331 330 330 330 330 330 329 329 329 329 329 328 327 327 329 329 329 328 326 326 328 328 327 326 326 327 328 329 330 330 329 329 329 328 327 325 324 324 325 325 325 324 324 325 324 324 324 324 321 318 318 318 317 317 317
348 344 343 343 343 342 341 338 335 334 334 333 334 334 333 330 329 329 332 333 333 332 331 331 332 332 333 333 332 332 332 331 330 330 330 329 330 330 329 328 327 327 327 327 328 328 328 327 325 326 327 326 324 323 323 324 325 327 328 328 328 329 329 328 327 326 325 325 325 325 325 325 324 324 324 324 324 324 321 318 317 317 317 317 317
348 344 343 342 341 340 339 336 334 335 334 333 336 333 328 327 326 328 333 335 334 334 333 331 331 332 332 333 333 333 333 332 331 330 329 330 330 330 328 327 327 327 327 327 328 328 328 326 325 324 324 323 323 323 324 325 326 327 327 327 328 328 328 328 327 326 325 325 325 325 325 325 324 324 324 324 323 322 320 318 318 317 317 317 317
348 344 342 341 340 339 337 335 336 336 335 335 334 328 325 326 325 327 334 336 334 334 333 332 331 331 332 333 333 333 333 332 331 329 329 330 330 330 328 327 327 327 327 327 327 328 328 327 325 324 324 324 325 325 326 328 328 327 327 327 327 328 328 328 327 326 325 325 324 324 324 324 324 324 324 324 322 320 318 318 318 318 317 317 317
348 344 341 340 340 338 336 335 336 336 336 334 328 324 327 327 325 330 335 336 334 334 333 332 332 332 333 334 333 332 330 330 330 330 330 331 330 330 329 328 327 327 326 327 327 328 327 327 326 326 325 325 324 324 325 327 329 329 328 327 327 328 328 328 327 326 325 325 324 324 324 324 324 323 323 323 322 320 318 318 318 317 317 317 317
347 344 342 340 339 337 335 336 336 335 335 329 324 325 328 327 327 333 337 336 335 334 332 332 332 333 334 334 331 330 329 329 330 331 331 331 331 331 331 329 327 326 326 327 328 328 327 327 327 326 325 324 323 322 323 324 326 329 328 327 326 327 328 327 327 326 326 325 325 325 325 324 324 323 324 323 321 319 318 318 318 317 317 318 318
347 344 342 339 338 337 335 335 336 335 332 327 325 328 329 327 330 335 336 336 336 334 332 332 332 333 334 333 331 329 330 330 330 331 332 332 332 332 331 330 329 327 326 326 327 328 327 326 326 325 325 324 323 323 323 323 325 327 328 327 326 327 328 327 327 327 326 325 325 325 324 324 324 324 324 322 320 319 319 318 317 318 318 319 319
346 343 341 339 337 336 335 334 334 333 329 326 328 331 330 331 334 336 336 336 335 334 333 332 333 334 335 334 331 330 331 331 331 331 332 333 333 332 331 331 330 328 327 326 327 328 327 326 326 325 325 324 323 323 324 324 325 326 327 326 326 326 327 327 327 327 326 326 325 325 325 324 324 324 324 322 321 320 320 319 318 318 318 319 319
344 342 340 339 337 336 333 331 331 330 327 328 332 333 331 332 335 336 336 336 335 334 334 333 334 335 335 335 333 331 331 331 331 331 332 332 333 333 333 332 332 331 329 327 327 327 327 326 325 326 325 324 323 324 325 326 326 326 326 326 326 326 326 326 326 326 327 326 324 323 324 324 323 323 323 323 321 321 320 320 319 319 318 318 318
343 342 340 338 338 336 332 330 331 329 328 330 335 334 331 331 333 334 333 333 334 335 335 334 335 334 335 335 333 332 331 331 331 331 332 332 333 333 333 333 333 332 331 329 327 328 327 326 325 326 325 324 323 323 324 325 325 325 325 325 325 326 327 326 325 325 325 325 324 322 323 323 322 322 322 322 321 320 320 320 320 319 318 318 318
342 341 340 338 337 336 333 331 330 330 331 334 335 333 331 331 331 331 331 332 334 335 335 335 335 334 335 334 333 332 332 331 331 331 332 332 332 333 333 333 333 333 332 330 328 327 326 326 325 325 325 324 323 323 322 322 323 324 325 325 326 327 326 325 324 323 323 323 323 322 322 321 321 320 320 320 320 319 319 318 318 318 317 317 317
341 341 339 338 337 336 334 332 330 331 334 336 334 332 332 332 331 331 332 334 335 335 335 336 335 334 334 334 334 333 333 332 332 331 331 331 332 333 333 333 333 333 331 329 328 327 326 325 325 325 325 324 323 322 320 321 323 325 326 326 326 325 324 323 322 322 322 321 321 320 320 319 319 319 318 318 317 317 317 317 317 317 317 317 318
341 340 339 339 338 335 333 331 330 331 334 334 333 332 332 332 332 332 333 335 335 335 335 336 334 334 335 334 334 334 333 333 332 331 332 332 333 333 333 332 332 330 329 328 327 326 325 325 325 325 324 323 322 320 320 322 324 325 325 324 324 323 322 322 322 321 320 319 319 318 318 318 318 317 317 317 316 316 316 316 316 317 317 318 318
340 340 340 339 338 336 333 331 331 333 333 333 333 333 333 333 333 334 335 335 336 336 336 336 335 334 334 334 334 334 333 333 332 332 332 332 331 331 330 330 330 329 329 328 327 326 325 325 325 324 322 321 320 319 321 323 325 324 324 323 322 322 321 321 320 319 318 317 318 318 318 318 317 317 317 316 316 315 315 315 316 316 317 318 318
341 341 340 340 339 337 333 331 332 333 333 334 334 333 334 334 334 335 335 335 336 336 335 335 334 334 334 334 334 333 333 333 332 332 331 329 329 328 328 329 329 329 328 327 326 325 325 325 323 322 320 319 319 321 323 324 325 324 323 322 321 320 320 318 318 317 316 316 317 318 318 317 317 316 316 316 316 315 314 314 315 315 316 317 317
342 341 340 339 339 337 335 334 334 331 332 334 335 334 335 335 335 336 335 335 335 335 334 334 334 333 333 333 333 332 332 332 331 329 328 327 327 327 327 328 329 328 328 326 325 325 324 324 322 320 319 319 320 322 323 324 323 322 322 321 319 318 317 316 315 314 314 314 315 316 316 316 315 315 314 314 315 315 314 314 313 314 314 315 315
342 340 340 339 339 338 336 335 333 331 331 335 336 335 336 336 336 336 335 335 335 335 334 334 333 333 332 331 331 332 331 329 328 327 327 327 326 325 326 327 327 327 326 325 325 324 324 322 320 319 318 320 321 322 323 323 322 321 319 319 317 316 315 314 313 313 313 313 313 314 314 314 313 313 312 312 313 313 313 314 314 313 313 314 315
341 340 340 339 338 337 336 336 333 331 332 335 335 335 336 336 336 337 336 336 335 335 334 333 332 331 331 331 331 331 330 328 327 327 326 325 325 325 325 325 325 325 325 324 324 324 322 320 319 318 319 320 320 321 322 321 320 318 317 316 315 314 312 312 311 311 312 312 312 312 312 311 311 311 310 311 311 311 311 313 314 314 314 314 315
341 340 340 339 338 338 336 336 335 333 333 334 334 335 336 336 336 337 336 336 335 334 334 333 331 330 330 330 329 329 328 327 326 326 325 324 325 325 324 324 324 324 324 324 323 322 320 319 319 319 319 319 319 320 321 320 318 317 315 314 312 311 311 310 310 310 311 310 310 310 310 309 310 310 309 309 309 310 310 312 313 314 314 315 315
340 340 340 339 338 338 337 337 336 335 334 334 334 334 335 335 336 336 335 335 335 334 334 333 331 330 329 329 327 327 326 325 325 325 325 325 325 324 324 324 324 323 323 323 321 320 319 319 318 318 319 319 319 320 320 318 316 314 313 312 311 310 309 308 308 309 309 308 308 309 308 308 308 308 307 307 308 309 310 311 311 313 314 315 315
340 340 339 338 338 337 337 337 337 335 334 333 333 335 336 336 335 335 335 335 334 333 332 331 330 329 328 327 325 325 325 325 324 324 324 324 324 324 323 323 323 323 322 321 320 319 319 318 318 318 319 320 320 319 316 314 313 311 310 310 309 308 307 306 307 307 306 306 307 307 307 306 307 306 306 306 307 308 309 309 311 313 315 315 315
339 338 337 337 336 336 336 337 336 335 333 331 332 334 336 335 335 335 334 333 332 332 331 329 328 328 326 325 324 324 324 324 324 324 324 324 323 323 323 323 322 322 321 320 319 318 317 317 318 320 321 320 318 315 312 311 310 309 308 308 307 305 304 305 305 304 304 304 304 305 305 305 305 305 305 305 306 307 307 308 309 311 313 313 314
337 336 336 335 334 334 335 335 335 334 332 330 331 333 334 334 333 333 332 331 331 330 329 328 328 326 325 324 324 324 325 324 324 324 324 323 323 322 322 322 321 320 320 320 319 317 317 318 318 318 318 316 314 311 310 309 308 306 305 305 303 302 302 303 303 303 303 303 303 303 303 304 304 304 304 304 304 305 306 306 308 309 310 311 313
335 335 334 334 333 332 332 333 333 332 331 331 331 332 332 331 330 330 329 329 329 328 327 328 328 325 324 325 325 325 325 325 324 324 323 323 322 322 322 321 320 320 320 319 317 316 317 317 317 315 314 312 311 310 308 306 304 303 302 301 301 300 299 300 301 302 302 302 302 302 303 303 303 303 303 303 303 304 304 305 307 308 309 311 313
334 334 333 333 332 332 332 333 332 331 330 330 330 330 329 329 328 327 326 326 328 328 327 327 326 324 325 326 326 325 325 324 323 323 323 323 323 322 322 321 320 319 319 317 316 316 316 315 315 313 312 311 309 307 305 303 303 301 301 300 300 299 298 298 299 301 302 302 302 302 302 302 303 302 302 302 302 303 304 304 306 307 308 310 312
333 333 333 333 332 332 332 332 331 330 329 328 328 327 326 326 325 325 324 326 327 328 328 327 325 325 326 326 326 324 323 323 322 322 323 323 323 323 322 320 318 317 316 315 315 316 314 313 312 311 310 308 306 305 304 303 302 301 301 300 300 299 297 296 298 301 302 301 301 301 301 301 301 301 301 302 302 302 303 304 305 306 307 309 311
333 332 332 332 332 331 331 330 329 328 326 325 325 324 322 321 320 322 325 326 327 327 327 327 326 326 326 325 324 322 321 321 321 321 323 323 322 321 320 317 316 315 314 314 315 314 313 312 310 308 307 305 305 305 304 303 301 301 300 300 300 298 295 295 298 301 301 300 300 300 300 300 300 300 301 301 302 302 302 303 304 306 307 308 310
333 332 332 332 331 331 330 329 327 325 323 323 322 321 320 320 320 321 323 324 325 325 325 325 325 325 323 322 322 321 320 320 320 321 322 321 320 318 317 315 314 313 313 314 314 312 311 310 307 305 304 304 304 304 303 302 301 300 300 300 299 297 294 295 299 301 300 300 300 300 300 299 299 300 300 301 301 302 302 302 303 305 306 308 309
332 331 331 330 330 329 329 327 325 323 323 322 322 321 321 320 319 319 319 320 321 322 322 322 322 322 322 321 321 320 320 319 319 320 319 318 317 316 315 314 313 313 312 312 312 310 309 307 306 305 304 304 304 303 302 301 301 299 299 299 297 294 294 297 300 300 299 299 299 299 299 299 299 299 299 300 301 302 302 302 303 304 305 307 308
328 327 327 327 328 329 328 326 325 324 323 323 322 322 321 320 319 318 318 318 319 320 320 321 321 321 320 320 319 319 318 318 317 316 315 314 314 315 314 313 312 312 311 311 311 309 307 306 305 305 305 304 304 303 302 301 300 299 298 297 294 292 295 299 300 299 298 298 299 299 299 299 298 299 299 299 300 301 302 302 302 303 305 306 307
324 324 325 325 326 327 327 326 324 324 323 323 323 322 321 320 320 320 320 319 319 319 319 319 319 319 319 318 317 316 315 314 312 312 312 311 312 313 313 313 312 312 311 310 309 308 306 306 306 305 305 304 303 302 301 300 299 298 297 293 291 293 298 300 300 299 298 298 299 299 298 298 298 298 299 299 300 301 302 302 302 303 304 305 306
325 324 325 325 325 325 326 326 325 325 324 324 323 322 321 320 320 320 320 320 320 319 318 317 317 317 316 315 314 312 311 310 310 310 310 311 312 312 313 312 312 311 310 308 307 307 306 306 306 305 304 303 302 301 301 300 299 296 293 290 291 296 299 300 299 298 297 297 298 299 298 298 298 298 298 299 300 301 301 302 302 302 303 304 306
326 325 326 326 325 325 325 326 326 326 325 323 322 321 320 320 320 319 319 318 318 318 317 316 315 314 312 311 310 310 310 310 310 310 310 310 311 311 312 313 312 311 309 308 307 306 306 306 305 305 303 302 301 301 300 300 297 293 289 289 294 298 299 299 299 298 297 297 298 298 298 297 298 298 298 299 299 300 300 301 302 302 302 303 304
326 325 326 327 327 327 327 326 326 325 323 322 321 321 320 320 319 319 318 318 317 317 317 316 314 312 311 310 310 310 310 310 310 310 311 311 310 310 311 312 312 311 309 308 307 306 305 305 304 303 302 301 301 300 300 298 294 290 288 292 296 299 299 299 299 299 297 296 297 298 297 297 297 298 298 298 299 299 300 300 301 301 302 302 303
327 327 328 328 329 329 328 327 326 324 323 322 321 321 321 320 319 318 318 317 318 318 317 314 312 312 312 311 310 309 310 310 310 311 311 311 310 310 310 310 310 309 308 307 306 305 304 304 303 302 301 301 300 300 299 296 291 287 290 295 298 298 298 299 299 299 297 296 296 297 297 297 297 298 298 298 298 298 299 299 300 301 301 302 303
327 326 327 329 328 328 327 327 326 324 323 322 322 322 321 321 320 319 318 318 318 317 316 314 313 313 313 312 312 311 311 311 312 312 312 311 311 311 310 309 308 308 307 306 305 304 303 303 302 302 301 300 299 299 298 294 289 287 291 296 298 298 298 299 299 298 298 297 296 296 297 297 297 297 298 298 298 298 299 299 299 300 301 301 302
325 323 324 327 328 328 328 327 326 326 326 325 325 324 323 322 321 320 319 319 318 317 316 316 316 315 314 314 315 314 313 313 313 313 312 312 311 311 311 309 308 307 306 305 304 304 303 303 302 301 301 299 299 298 297 293 288 287 291 296 298 297 298 298 298 298 297 297 296 296 296 296 297 297 297 297 297 298 299 299 299 299 300 301 302
324 325 325 326 327 327 327 326 326 326 326 326 326 325 324 323 322 321 320 319 318 317 317 316 316 316 316 316 316 314 314 314 313 312 311 311 310 311 311 310 308 306 305 305 304 304 303 303 302 301 300 299 298 298 295 291 288 287 290 295 297 297 297 298 298 297 297 296 296 296 296 296 296 297 297 297 297 298 299 298 299 299 300 300 301
327 327 327 327 327 327 326 326 325 325 324 324 325 324 324 324 323 322 322 320 319 319 318 316 316 316 317 316 315 314 314 314 312 311 311 311 310 310 311 310 308 306 305 305 304 303 303 302 301 301 299 298 298 297 293 289 287 287 290 294 297 297 297 297 297 296 296 296 295 295 295 295 296 297 297 296 297 298 298 298 298 299 299 300 301
328 327 327 326 326 326 326 325 325 325 324 324 323 322 322 322 322 322 322 321 320 320 319 318 317 317 317 316 315 314 314 314 312 310 310 310 309 309 309 309 307 305 304 304 303 303 302 302 301 300 299 298 297 295 291 288 287 287 289 293 296 296 296 296 296 296 296 295 294 295 295 294 295 297 297 296 297 298 298 297 298 299 299 300 301
326 325 325 324 324 325 325 325 324 324 323 323 322 321 319 318 318 318 319 319 320 320 320 320 319 318 318 317 316 315 315 314 312 310 310 309 308 308 308 307 306 304 304 304 303 303 302 301 300 300 298 297 296 294 291 288 288 287 288 290 294 295 296 296 296 296 295 294 293 294 294 293 294 296 297 296 296 297 297 297 298 299 299 300 300
323 323 323 323 323 324 324 324 323 323 322 321 321 320 319 318 318 318 317 318 318 318 318 318 319 318 318 318 317 316 315 314 311 310 309 308 307 307 307 306 305 304 303 303 303 303 302 301 300 299 298 296 295 294 293 290 289 287 287 288 291 294 296 296 295 295 295 293 293 294 294 293 293 296 296 296 296 297 297 297 298 299 299 299 300
322 321 321 321 322 323 323 323 322 322 320 319 319 319 319 319 318 318 318 317 317 317 317 317 316 316 316 316 316 316 315 313 311 310 309 308 307 306 306 305 304 304 304 303 303 303 302 300 299 298 296 296 295 294 294 293 292 289 288 287 289 292 295 296 295 295 295 293 293 294 294 293 293 295 296 295 296 297 297 297 298 299 299 299 299
319 319 319 320 321 321 322 322 321 319 318 318 318 319 319 319 318 318 318 317 317 316 316 316 315 315 314 315 316 316 314 311 310 309 308 307 306 306 305 305 305 305 304 304 303 302 301 300 299 297 296 295 295 294 295 295 293 292 290 288 288 290 293 295 295 295 295 294 293 293 294 293 293 295 296 295 296 297 297 297 298 299 298 298 298
317 317 318 318 319 320 320 320 320 319 318 318 318 318 318 318 318 318 318 317 317 317 317 316 315 315 314 314 314 314 312 311 310 308 307 307 306 306 305 305 305 305 304 304 303 302 301 300 298 297 296 295 295 295 295 295 294 293 292 291 289 288 291 294 295 295 295 294 293 293 293 293 293 295 296 295 296 297 296 296 298 299 298 297 297
314 314 314 314 314 314 314 315 316 317 317 317 318 318 318 318 318 318 318 318 317 317 316 316 316 315 314 314 313 312 312 311 310 308 306 306 305 305 304 304 305 305 304 304 303 302 301 299 298 297 296 296 295 295 295 295 294 294 294 294 291 288 288 291 294 295 295 294 293 293 293 293 293 295 295 295 295 296 296 296 297 298 297 297 296
312 311 311 310 310 309 309 310 310 310 310 311 311 312 312 313 314 315 316 317 317 317 316 316 315 315 315 314 313 313 312 311 309 307 306 305 304 303 303 304 304 304 304 303 303 302 301 299 298 297 296 296 296 296 295 295 295 295 295 295 293 289 288 289 293 295 295 294 293 293 293 293 293 294 295 295 295 296 295 295 296 297 297 296 296
Wind_Speed
35 35 33 29 29 32 34 34 33 31 27 25 23 21 17 17 18 17 17 16 16 16 16 16 16 16 16 16 16 15 14 14 14 14 14 13 13 12 12 13 14 14 15 15 15 15 16 17 17 18 18 18 19 19 20 21 21 21 20 20 20 20 19 17 11 13 25 25 20 24 27 26 29 31 29 30 31 32 32 31 31 32 33 35 38
37 34 30 27 29 34 37 38 35 31 26 23 21 19 16 17 17 17 16 16 16 16 17 18 18 18 18 18 16 15 15 15 14 14 14 14 13 13 13 14 15 16 16 16 16 15 15 16 17 17 16 16 16 17 18 19 20 21 22 21 23 24 22 21 17 14 20 26 22 23 27 26 28 31 31 31 33 34 33 32 31 32 33 35 36
35 29 26 28 32 37 41 40 35 30 25 21 19 17 16 16 17 17 16 16 16 17 18 19 19 19 19 18 17 16 15 15 14 14 15 14 14 14 14 15 16 16 16 16 15 15 15 16 16 14 14 14 15 15 16 17 19 20 22 22 23 26 25 23 21 18 20 25 25 23 24 25 27 29 30 32 34 33 32 32 32 32 33 34 35
30 26 28 34 38 41 43 42 37 31 26 23 20 18 17 17 17 16 17 17 18 18 19 19 20 20 20 19 17 16 15 15 15 16 16 15 15 15 15 16 16 16 16 16 15 15 15 15 14 13 13 13 14 14 15 16 18 19 20 21 22 25 25 23 23 22 20 22 27 27 24 24 28 29 29 32 34 33 32 31 32 32 33 33 34
27 27 32 39 42 44 45 41 34 29 26 24 22 20 18 16 15 16 19 21 20 20 21 21 22 22 21 19 17 16 16 16 16 17 16 16 15 16 16 16 16 16 15 15 15 14 15 15 15 14 13 14 15 15 15 16 17 18 19 21 22 23 24 23 23 22 20 20 27 30 27 24 26 29 29 29 30 31 32 32 32 31 32 33 34
26 29 35 41 43 45 42 33 28 27 26 25 24 21 19 17 16 18 23 24 23 23 24 24 24 23 22 20 19 18 18 18 18 18 17 16 16 16 16 16 16 15 15 15 15 15 16 16 16 15 14 15 16 16 16 17 18 19 20 20 22 23 23 24 23 21 19 19 23 26 25 21 21 25 28 26 24 25 28 33 33 32 31 33 35
27 31 37 40 40 42 33 25 27 31 32 30 28 26 25 22 21 22 26 28 27 27 27 26 25 24 23 22 21 20 20 20 20 19 18 17 17 16 17 16 16 16 15 16 16 16 16 17 16 16 15 16 18 18 19 19 19 19 20 20 21 23 23 23 23 19 16 17 19 22 22 19 17 20 23 23 23 25 27 28 29 32 33 32 34
29 34 36 36 38 38 29 28 34 42 40 37 36 33 28 25 24 26 29 31 30 30 29 28 26 25 24 23 22 20 20 21 21 21 20 18 17 17 17 17 17 17 17 17 17 17 17 17 17 17 17 17 19 20 21 20 19 19 19 19 20 22 23 23 22 19 15 15 17 19 20 20 19 20 20 19 21 23 25 25 26 31 35 35 35
32 34 35 37 39 35 32 35 43 48 45 41 37 31 25 25 28 30 31 33 32 31 30 28 26 26 25 23 22 21 21 21 20 20 19 18 18 18 18 18 18 19 19 18 18 18 17 17 17 17 17 17 19 21 21 19 19 19 19 19 20 22 23 22 21 18 15 15 16 17 19 20 22 24 22 20 21 23 25 27 28 32 35 37 38
33 35 38 39 36 34 36 40 43 45 46 42 36 30 27 29 32 32 33 34 34 32 30 29 28 27 25 24 23 22 22 21 19 18 18 18 18 19 20 20 20 20 21 20 19 19 18 17 17 17 17 18 19 21 21 20 19 19 19 19 20 22 22 20 19 18 16 16 16 16 17 19 23 24 22 23 26 26 26 25 27 31 32 32 34
34 37 37 35 34 36 39 41 43 46 47 42 36 32 32 34 35 34 34 35 35 34 32 30 29 28 26 25 24 24 23 21 19 18 18 18 19 21 22 22 22 22 22 22 21 19 18 17 17 17 17 18 20 21 21 20 19 19 19 19 20 21 21 20 20 18 16 16 16 16 17 20 22 22 22 26 28 27 26 25 26 27 26 22 22
34 35 34 34 36 38 39 40 42 42 39 34 31 30 32 34 35 34 35 35 35 35 33 31 31 30 28 26 25 25 24 22 20 20 21 21 21 22 23 24 24 24 24 24 21 19 18 18 18 18 18 18 20 21 20 20 19 18 20 21 21 21 20 20 20 18 18 17 16 17 19 21 22 23 24 26 27 28 28 29 29 28 27 23 22
34 34 34 37 39 39 39 39 38 35 33 30 27 29 33 34 34 35 35 34 34 35 35 33 32 31 30 28 27 27 26 24 22 22 23 23 23 24 25 26 26 27 27 25 23 20 18 18 18 18 18 18 19 20 19 19 19 20 21 22 23 22 20 19 18 18 20 21 19 19 22 23 24 25 26 26 28 31 30 28 28 29 30 30 30
34 35 36 38 40 39 37 38 37 36 35 32 30 32 35 35 34 34 34 32 32 34 35 35 34 33 31 30 29 29 28 26 25 24 24 24 24 25 26 27 27 28 28 26 23 20 19 18 18 18 18 18 19 19 18 18 20 21 23 23 24 23 20 17 16 16 19 20 20 21 23 23 23 26 28 29 30 32 31 27 27 29 32 34 37
35 36 37 38 39 38 39 40 41 40 36 34 35 34 34 33 32 32 32 32 33 35 36 36 35 34 33 31 31 32 31 28 27 25 25 24 23 24 25 26 26 27 27 25 23 20 19 18 17 17 17 17 17 17 18 19 20 21 23 24 23 21 18 15 16 17 17 17 18 20 21 23 27 29 31 32 32 32 32 29 29 33 36 37 38
34 36 37 37 39 40 42 41 39 38 37 37 35 32 30 31 32 33 33 32 32 34 35 35 35 35 33 32 33 33 32 30 28 26 25 23 23 23 23 22 22 23 23 22 21 19 18 17 16 16 16 16 16 17 18 19 20 20 20 19 19 18 17 16 17 19 18 18 20 23 25 27 30 30 29 30 30 31 32 31 31 33 34 31 31
34 36 36 38 40 42 41 38 37 39 39 34 30 29 30 31 33 33 31 30 31 33 35 36 36 35 34 34 34 34 33 31 27 25 23 20 20 20 20 19 19 18 19 19 19 18 17 16 14 14 15 15 16 17 18 18 17 16 15 16 17 18 19 20 21 21 22 23 25 27 27 27 27 26 26 26 27 27 27 28 30 30 27 21 21
35 37 38 40 41 40 39 38 39 39 33 25 24 27 29 31 32 30 29 30 32 34 36 35 34 35 35 34 34 33 31 28 22 18 16 14 14 16 17 17 16 16 16 17 17 17 16 14 12 12 14 15 15 17 17 15 14 14 15 15 15 16 18 21 23 25 26 26 27 27 26 26 25 24 25 25 26 25 23 25 28 28 24 19 20
37 40 40 39 39 37 37 36 35 31 26 24 24 25 28 29 28 26 26 29 31 32 32 32 32 34 33 32 30 27 25 21 16 13 12 11 12 14 15 14 14 14 15 16 17 16 14 12 11 12 13 14 15 15 14 13 13 14 13 12 12 14 18 20 23 25 27 26 27 27 27 26 24 25 26 26 27 26 24 25 27 27 25 24 26
38 38 35 34 34 33 31 30 28 25 26 27 23 21 23 22 21 22 24 26 27 27 26 25 27 27 25 24 22 18 16 14 11 10 11 11 12 13 12 13 14 15 15 16 15 14 13 12 11 11 12 13 14 14 13 12 13 12 11 11 13 16 18 20 21 22 23 23 23 25 25 25 25 26 27 28 29 29 28 28 28 28 28 29 33
29 29 28 28 29 28 27 28 26 23 23 22 16 15 17 17 17 20 21 22 22 22 21 20 18 17 13 10 9 9 9 8 8 10 13 13 12 11 11 12 13 14 14 14 14 13 13 12 11 11 12 12 12 13 12 11 10 10 10 12 14 16 18 20 20 20 19 19 20 21 22 23 25 26 27 29 30 31 32 32 31 31 31 32 36
21 24 25 25 26 26 27 28 25 20 21 20 16 16 18 17 17 18 19 19 18 16 16 14 13 13 12 9 10 13 14 14 15 17 17 14 11 8 9 11 12 12 13 13 12 12 11 11 11 11 12 12 12 11 10 9 9 9 11 12 14 15 16 17 18 18 17 17 17 18 21 22 23 26 27 29 32 33 34 34 34 34 35 35 36
19 22 24 25 27 27 28 28 24 20 22 23 20 18 19 17 16 16 17 16 15 13 14 15 16 19 19 17 16 18 18 18 19 18 14 12 9 7 9 10 11 12 12 11 11 11 10 10 10 10 11 11 10 8 7 7 8 9 10 12 13 15 15 15 16 15 15 15 15 17 21 21 21 24 27 30 33 34 34 34 35 35 36 38 40
19 23 25 27 28 28 27 27 24 23 25 25 19 15 14 13 14 15 14 14 14 14 15 17 20 21 19 15 15 16 16 16 15 13 12 10 8 8 9 10 11 11 10 9 10 10 10 11 10 10 10 9 7 5 6 7 8 9 10 12 13 13 13 14 14 12 12 13 13 15 19 21 21 24 28 31 33 33 32 33 35 36 36 38 42
22 25 26 28 28 27 25 26 27 28 30 27 17 10 9 12 14 14 13 14 16 16 15 18 19 17 14 14 15 16 14 13 12 12 11 9 8 9 9 10 9 9 8 8 9 10 10 11 11 9 7 5 4 5 5 6 7 8 10 11 11 12 12 12 12 11 12 13 13 14 19 24 25 26 29 31 31 31 31 32 35 36 36 38 42
24 25 26 27 27 26 26 28 31 32 29 23 13 8 11 14 14 13 15 16 16 14 15 17 16 14 14 15 14 13 12 12 13 12 9 8 9 9 9 8 8 8 8 8 9 10 10 10 8 5 2 4 4 3 3 5 6 7 8 8 9 10 10 11 11 11 13 15 15 17 21 24 26 28 30 30 30 30 30 31 33 35 36 38 39
24 24 25 26 26 27 28 29 30 27 23 19 14 12 12 11 11 14 16 15 12 11 13 14 13 15 16 14 12 12 14 15 13 10 9 9 9 8 8 8 8 7 7 8 9 9 8 5 3 3 4 5 3 2 3 4 5 5 5 6 8 9 10 10 10 11 13 15 17 18 21 24 26 28 29 30 31 32 31 30 31 33 35 36 34
24 24 25 26 26 26 26 25 25 22 20 18 15 12 10 8 9 13 14 10 7 10 13 14 15 17 17 15 14 15 15 13 11 9 10 10 9 9 8 8 8 7 8 8 8 6 4 5 6 6 5 4 2 2 2 2 2 3 5 6 8 10 11 11 12 13 14 15 17 18 21 23 25 27 29 30 31 33 32 31 30 31 33 33 29
24 24 25 25 24 23 23 22 22 20 18 16 12 9 8 8 8 8 6 6 7 11 14 15 17 18 18 17 16 15 12 9 8 9 10 10 9 9 9 9 9 8 8 7 5 4 6 8 8 6 5 3 2 1 1 2 4 5 7 9 11 13 14 14 14 15 16 17 17 19 21 21 23 26 29 30 32 33 32 31 30 30 30 29 27
25 25 25 24 22 22 21 20 19 18 15 13 10 7 6 5 4 6 8 10 12 14 15 17 18 18 17 16 13 11 8 7 7 8 10 11 11 10 10 9 9 8 6 4 3 6 8 8 6 4 3 2 1 2 3 4 6 8 10 12 14 15 15 15 15 15 16 16 17 19 20 21 22 26 28 29 31 33 32 30 29 28 27 26 26
25 23 23 22 22 21 19 19 20 19 16 15 12 8 6 4 4 9 12 13 13 13 14 15 14 13 14 12 11 9 7 6 8 9 10 10 10 10 10 9 7 5 4 2 5 7 7 6 4 4 4 4 3 2 2 4 6 9 12 14 16 16 16 15 14 15 15 16 17 18 20 21 23 25 26 26 28 31 32 32 30 28 27 26 25
25 24 23 22 21 21 22 25 26 23 19 17 15 13 12 11 9 8 9 9 9 9 10 12 12 12 11 9 8 7 6 7 8 8 8 9 9 9 9 7 5 3 3 4 5 5 5 5 5 6 6 5 3 3 3 5 7 9 12 14 16 16 15 14 13 13 14 15 16 18 20 22 23 25 26 26 27 28 30 31 30 28 27 27 28
28 27 26 25 24 25 27 28 27 23 20 19 19 17 16 15 13 10 8 8 9 11 12 12 11 10 9 7 6 5 5 7 7 7 8 7 7 8 8 6 4 4 4 5 5 5 5 5 6 6 4 3 2 3 4 6 8 9 11 13 14 14 13 11 11 11 12 13 16 18 19 21 23 25 26 27 26 25 26 27 28 26 25 25 27
28 27 26 26 25 26 26 24 21 20 19 19 18 17 17 16 16 16 15 13 12 12 12 11 10 9 8 7 6 5 6 7 6 6 6 4 4 6 7 7 6 5 4 4 4 5 6 6 5 4 2 1 1 3 5 7 8 10 12 13 13 12 11 9 9 10 12 13 15 17 19 20 22 23 25 27 26 24 24 25 26 25 24 23 25
22 21 22 22 23 24 24 21 17 16 16 15 15 15 16 16 18 19 19 18 17 15 13 11 10 9 8 8 7 7 7 6 5 4 4 3 3 5 8 9 8 7 5 5 5 6 6 5 4 3 1 0 1 3 6 7 9 11 12 12 12 10 9 9 9 10 12 13 15 17 18 20 21 22 24 25 24 22 22 23 24 24 23 22 23
14 16 18 19 19 20 22 20 17 16 14 13 13 15 17 18 20 21 19 18 17 16 14 13 12 10 9 9 9 9 8 7 5 5 4 3 3 5 8 9 10 8 7 6 6 6 6 4 3 2 2 0 1 4 7 8 10 11 10 10 9 8 8 8 9 10 12 13 14 16 18 19 21 23 23 24 23 20 20 21 22 22 23 23 22
12 12 15 16 14 14 15 16 14 13 12 12 12 15 17 19 19 18 17 15 15 15 15 15 14 14 13 12 12 11 10 8 6 4 3 2 3 3 5 7 9 9 8 7 6 5 5 4 3 3 2 1 2 4 7 9 10 10 8 7 7 6 6 7 8 10 12 13 14 16 18 19 21 22 22 23 23 22 21 21 21 21 24 25 24
10 11 13 13 10 9 9 9 9 9 9 10 13 15 16 16 15 15 15 14 14 15 17 17 18 18 17 16 15 13 12 10 8 6 4 4 3 3 4 4 7 8 8 7 5 4 4 4 4 4 2 1 2 5 8 10 9 8 7 6 5 4 5 6 7 9 11 13 14 16 17 19 20 21 22 22 22 23 22 22 22 22 24 26 25
9 9 9 7 5 5 4 5 7 9 10 11 13 15 15 15 14 14 15 15 15 17 19 19 19 19 18 18 17 16 14 12 11 9 7 6 5 5 5 5 6 7 7 6 6 5 5 5 5 4 3 1 3 5 8 9 8 6 5 4 3 4 5 6 7 9 11 13 14 15 17 18 19 20 22 22 22 24 24 22 22 22 21 21 22
12 10 8 8 8 7 6 7 9 10 11 12 14 14 15 14 14 14 14 15 16 18 20 20 20 20 19 19 18 17 16 15 13 11 9 8 8 8 7 7 7 7 7 6 6 6 6 5 5 4 2 1 3 6 8 8 6 5 4 3 2 3 5 6 7 9 11 13 14 15 16 18 18 20 21 21 22 23 24 23 23 23 21 19 20
8 6 6 6 7 7 8 9 9 8 9 9 10 11 12 11 11 12 13 14 16 18 19 20 20 19 18 18 17 16 15 14 12 10 9 9 10 10 10 9 9 8 7 7 6 6 6 5 4 4 2 2 3 6 7 7 5 4 3 2 2 3 4 6 7 8 10 12 14 15 16 17 18 19 20 21 21 22 23 24 24 23 23 21 21
4 5 6 6 6 7 8 8 7 6 7 7 7 8 9 9 10 11 12 13 15 17 18 19 19 18 18 17 16 15 15 13 11 10 9 9 9 10 11 11 10 9 7 6 6 5 5 5 4 3 2 2 4 6 7 5 4 3 2 1 1 3 4 5 7 8 10 12 13 15 16 17 17 18 19 20 20 21 22 24 24 23 24 24 22
8 9 9 8 8 7 7 7 6 6 5 5 5 6 7 7 8 9 10 11 13 13 13 15 16 17 18 18 17 17 16 14 12 10 9 9 9 10 10 11 11 10 8 6 5 5 5 5 4 3 3 2 4 6 6 4 2 2 1 0 1 2 4 5 7 8 10 12 13 14 14 15 16 17 18 19 20 20 21 23 24 24 24 24 23
11 11 10 9 7 6 6 5 4 4 4 4 4 5 5 5 6 7 8 10 10 9 9 11 13 15 17 18 19 18 17 15 13 11 10 9 9 9 9 11 12 10 9 7 6 5 5 5 4 3 2 3 4 5 5 3 2 1 1 0 1 2 4 5 7 8 11 12 13 13 14 15 15 16 17 17 18 19 20 21 23 23 23 23 23
11 10 9 8 7 6 6 5 5 5 5 4 4 4 4 4 5 6 7 8 8 8 9 10 12 12 14 17 19 20 19 16 13 11 10 10 10 9 10 12 12 10 9 8 7 6 6 5 4 3 2 3 2 3 4 4 2 2 1 1 1 2 4 5 7 8 11 13 13 12 13 15 15 15 16 17 17 18 19 20 20 21 22 21 21
10 9 8 8 7 7 7 7 7 6 4 3 4 4 5 5 5 6 7 8 8 8 9 10 11 12 13 15 18 20 19 17 13 12 11 11 10 10 12 13 12 10 9 8 7 7 7 6 4 3 2 2 1 1 4 5 4 3 2 2 1 2 3 5 6 7 10 12 12 11 12 14 14 12 13 14 15 16 17 18 19 20 20 19 19
11 10 9 9 9 9 9 8 7 5 3 2 3 3 3 4 4 6 7 8 8 9 10 10 11 12 13 15 18 20 19 16 13 12 13 13 11 12 13 14 12 11 10 10 9 9 8 7 5 3 2 2 2 2 4 6 6 4 3 3 2 2 2 3 5 7 9 11 11 10 11 12 12 11 11 12 13 15 16 17 18 20 20 19 20
11 11 10 9 9 9 8 7 5 4 3 2 2 2 3 4 5 6 7 9 9 10 11 11 11 12 13 14 17 18 18 16 14 13 14 14 13 13 14 14 12 11 11 11 11 11 10 8 6 4 3 3 3 3 3 5 6 6 5 4 3 3 3 3 4 5 7 9 10 9 10 11 10 10 10 11 12 13 15 16 16 17 19 20 21
9 9 9 8 8 8 7 6 5 4 3 3 3 4 5 6 7 8 9 10 12 12 13 13 13 13 13 15 17 18 18 17 16 16 16 15 14 14 15 14 13 12 12 13 13 13 12 10 7 5 4 4 4 3 3 5 6 6 6 6 4 3 3 3 3 4 6 8 8 7 8 9 9 8 9 10 10 11 14 15 14 15 17 19 21
8 8 8 8 7 7 6 5 4 3 3 4 5 6 8 9 11 12 12 13 14 15 15 15 15 15 15 16 18 19 20 19 18 17 17 16 15 15 14 14 14 14 13 13 14 14 13 11 9 7 6 6 5 3 2 3 5 6 7 8 6 4 3 3 3 3 5 6 7 6 7 8 8 8 8 9 9 10 13 13 13 14 16 17 19
8 8 8 8 7 7 6 5 4 3 2 1 2 4 6 8 10 13 15 16 18 19 19 19 18 18 18 18 19 20 21 21 20 18 17 17 16 16 15 15 15 14 14 14 14 15 14 12 10 8 7 7 6 4 2 1 3 5 7 9 9 6 3 3 3 2 3 5 6 6 6 7 8 7 8 8 9 10 12 12 12 13 15 16 17
Wind_Direction
213 211 208 205 205 210 215 217 216 214 210 207 207 208 214 220 216 211 210 214 217 218 220 219 220 222 224 227 232 237 241 245 250 253 253 252 254 261 267 273 279 283 284 283 283 284 286 286 286 286 285 281 277 273 270 270 265 260 260 258 260 268 267 256 246 272 285 286 285 290 295 297 300 303 305 309 314 318 319 320 320 321 322 324 324
212 208 199 196 202 208 215 217 214 210 204 203 206 209 217 220 217 214 215 218 220 220 219 216 217 221 225 230 235 238 242 247 251 252 250 251 255 262 270 278 283 284 283 282 281 283 284 284 283 284 284 282 280 279 277 275 270 264 262 259 262 271 271 263 257 265 284 289 288 290 293 294 296 300 304 306 309 313 315 316 317 318 319 320 319
211 198 183 189 202 209 214 214 210 204 196 198 209 213 217 217 217 220 222 222 223 221 219 219 221 226 230 234 236 239 244 247 249 251 252 254 259 266 274 281 284 283 281 281 281 282 281 280 281 283 283 282 282 283 283 281 275 269 268 265 265 272 276 270 265 266 279 288 289 289 291 292 293 297 302 304 305 308 311 312 314 315 316 317 315
204 184 178 193 205 209 211 210 206 199 188 191 203 209 216 219 219 225 229 227 226 224 224 226 229 233 234 236 238 241 245 246 248 252 256 259 263 269 276 279 279 277 278 280 281 281 279 278 283 287 285 283 284 286 286 284 281 275 272 272 271 276 280 277 272 269 273 283 287 288 289 290 292 296 299 301 303 306 308 309 310 312 313 314 313
194 177 182 197 205 208 209 204 196 185 178 186 198 206 213 217 221 230 234 232 230 230 230 232 234 235 235 237 240 241 242 245 250 253 256 260 266 271 273 273 272 271 274 279 280 279 278 279 283 285 283 283 286 289 289 288 286 282 279 280 280 282 285 284 279 273 269 274 283 288 290 288 290 294 296 297 301 305 307 308 309 310 312 313 312
186 176 188 200 204 207 205 193 174 168 176 189 198 202 205 214 228 236 236 235 234 233 234 234 234 234 235 239 241 242 243 246 249 252 255 260 265 267 268 267 267 268 271 275 276 276 275 276 280 280 280 282 284 286 287 288 289 288 285 286 287 287 286 286 285 278 270 272 279 286 290 288 288 292 295 296 297 299 303 306 308 309 310 311 311
183 183 193 199 202 204 196 167 160 176 187 192 194 196 203 217 231 234 235 237 236 235 235 235 236 236 238 241 243 244 247 247 248 250 253 258 260 261 262 262 263 265 267 270 272 272 272 274 277 277 276 279 282 284 285 286 288 288 288 288 288 287 286 287 286 279 272 274 277 281 287 289 288 289 293 296 296 296 298 301 304 307 308 308 309
187 189 192 195 200 200 181 161 178 192 193 192 193 194 203 220 227 227 234 238 235 235 236 236 237 238 239 243 244 245 247 246 246 247 251 255 256 258 259 259 261 263 264 267 270 272 274 275 276 277 278 281 284 286 286 284 284 284 286 287 287 286 286 286 285 281 276 275 276 280 286 290 290 289 291 293 292 293 297 298 298 301 305 306 306
189 188 190 195 199 191 174 175 190 195 192 190 190 191 206 223 226 228 236 238 236 236 236 237 238 239 240 243 243 242 242 241 242 244 248 252 255 258 261 262 264 264 263 264 268 271 274 275 277 278 280 284 287 288 286 282 279 279 282 285 286 285 284 283 282 280 278 277 276 280 286 288 289 290 289 286 284 288 296 298 296 298 303 303 302
188 188 192 196 193 182 179 184 189 190 190 188 186 194 210 221 226 234 239 238 237 236 235 236 237 238 241 243 240 237 236 237 240 244 249 252 255 259 261 264 265 264 263 263 265 270 273 275 277 278 280 286 290 290 289 283 276 274 277 281 283 283 280 277 276 276 275 274 273 278 283 283 285 286 283 283 286 290 294 295 295 298 303 302 300
189 191 192 191 185 181 183 186 186 188 190 187 187 200 215 220 225 234 238 237 237 236 234 235 236 238 241 242 239 236 236 238 241 245 250 253 255 258 261 264 266 264 263 263 264 270 273 272 273 275 280 288 291 291 290 285 276 271 273 278 281 281 277 272 270 273 272 269 269 273 277 279 283 285 284 286 291 293 294 295 296 297 299 299 298
190 190 188 185 183 183 184 184 186 189 187 183 187 204 220 226 227 230 235 237 236 235 234 234 235 239 242 242 240 238 239 243 244 245 249 252 254 258 261 264 265 266 265 264 265 268 269 267 268 273 281 289 291 289 288 285 280 275 276 278 280 281 280 274 271 272 272 270 270 273 275 280 286 288 287 289 294 296 296 295 295 294 292 291 289
189 187 186 186 185 184 183 181 182 182 177 177 193 210 220 228 230 228 232 237 237 235 235 234 237 241 243 243 243 241 243 247 247 247 250 252 254 256 259 262 264 266 267 266 266 268 265 262 265 272 282 289 289 288 287 288 287 284 282 282 282 282 284 282 279 278 278 276 273 273 278 284 287 288 289 292 295 297 296 293 292 289 287 286 285
187 187 187 187 185 184 181 178 179 177 174 182 202 216 220 226 231 230 232 236 236 235 235 236 238 241 243 243 244 243 245 248 250 251 252 255 258 257 259 261 261 264 266 266 266 267 262 260 265 274 282 287 287 288 291 291 290 287 286 286 286 286 287 288 291 293 292 286 279 277 282 287 287 289 292 296 296 295 294 292 289 286 284 285 287
186 188 188 186 185 184 181 181 180 176 179 195 210 219 222 225 230 232 232 234 235 235 235 236 238 240 241 243 244 245 247 250 253 256 258 260 262 262 262 262 262 265 267 266 266 265 260 259 267 277 282 284 285 290 294 293 289 288 288 288 289 289 290 295 302 302 299 294 288 287 289 292 294 294 295 295 295 294 294 292 289 289 289 289 289
186 188 189 187 187 186 185 184 179 176 187 204 212 217 223 227 231 232 232 233 234 235 236 237 238 240 241 242 243 245 249 253 256 259 262 266 267 268 268 267 268 269 268 267 266 262 258 262 271 278 280 281 285 290 294 294 291 292 292 291 291 293 297 304 308 306 303 301 300 299 297 297 298 298 297 297 298 299 301 299 294 293 293 291 290
188 190 191 190 190 190 185 179 176 180 192 205 212 216 221 227 232 232 229 231 233 234 235 237 238 240 241 241 242 245 249 255 258 261 267 271 273 274 274 272 271 271 270 268 264 260 261 268 275 277 278 283 290 294 296 295 294 294 295 295 298 301 305 308 308 308 309 309 307 306 304 305 306 307 309 310 309 307 303 296 293 294 294 289 289
191 193 196 194 192 189 182 177 180 183 191 205 216 220 222 226 231 233 230 230 232 234 236 238 239 241 242 242 242 244 249 255 259 261 263 267 272 275 274 271 270 270 268 264 261 262 267 274 278 279 283 290 294 295 296 293 292 295 296 300 304 307 310 312 311 312 314 314 314 314 314 316 318 318 319 319 318 314 301 290 292 295 292 286 288
196 198 199 197 193 188 182 181 183 185 196 213 218 223 227 226 228 234 235 234 236 238 238 239 240 242 242 242 243 245 251 256 252 244 244 250 259 264 265 266 265 265 264 261 263 269 275 280 283 284 289 295 295 294 293 289 290 295 298 304 309 308 311 312 312 314 316 317 319 320 320 321 322 322 323 323 324 323 313 301 299 296 290 287 290
201 200 198 195 192 187 182 182 181 185 205 217 216 222 232 231 231 237 241 242 242 243 244 245 247 248 247 247 248 249 254 256 245 239 247 250 248 251 257 260 261 261 263 266 270 276 280 285 290 292 296 300 297 292 289 288 292 297 302 308 309 306 308 310 310 313 315 315 318 318 318 321 324 325 327 328 330 329 323 315 308 299 293 293 293
200 196 194 191 187 183 180 182 182 188 209 221 221 229 240 245 245 246 248 248 245 247 251 252 253 256 254 250 253 251 246 244 254 272 273 260 247 249 255 257 260 263 266 271 276 281 286 292 298 303 305 304 299 294 289 287 292 298 302 304 304 303 306 308 310 313 313 313 314 316 317 322 326 327 329 330 331 329 324 322 318 311 304 299 296
193 190 188 184 181 180 183 185 184 190 207 216 221 232 242 250 254 253 250 247 244 248 249 246 250 253 241 225 232 235 224 225 250 272 272 257 244 248 253 257 263 266 268 274 279 282 289 298 307 312 310 305 302 298 290 285 289 297 300 302 304 306 307 308 310 313 315 316 318 319 320 322 324 325 328 330 330 328 325 324 324 320 315 309 302
187 184 183 181 182 184 185 185 183 188 201 209 216 230 240 248 251 246 239 237 237 238 239 239 238 234 226 219 220 219 217 230 250 260 253 241 239 249 255 260 266 267 269 275 278 282 294 305 313 315 309 304 303 294 281 280 287 293 300 305 307 308 307 308 313 318 321 323 324 322 321 322 321 322 326 328 329 327 326 327 327 323 321 318 314
180 179 180 181 184 187 186 184 183 187 198 210 219 229 237 243 239 233 232 233 230 225 230 233 227 220 218 217 211 212 225 242 247 237 227 231 243 252 256 260 263 266 270 274 278 289 303 312 315 312 306 300 291 272 265 276 286 294 302 306 306 307 310 315 322 327 329 329 326 320 321 322 320 321 324 327 328 327 328 329 328 325 324 324 324
176 176 177 179 182 184 182 181 183 188 198 209 217 226 238 239 232 230 232 229 221 216 220 224 220 216 219 220 219 225 236 235 222 215 220 233 244 248 252 255 258 263 269 275 287 301 309 313 314 311 302 278 254 251 260 276 290 297 301 304 305 309 317 324 331 336 335 332 327 318 320 324 325 325 327 328 329 330 332 331 329 330 333 333 329
171 171 172 174 176 175 173 176 184 191 199 206 214 241 252 241 231 230 227 218 213 214 213 212 212 213 218 223 228 229 221 209 207 213 221 232 240 243 246 249 254 263 271 283 298 306 309 309 307 296 233 205 219 244 271 285 295 298 299 305 311 319 329 335 339 340 338 334 329 321 321 326 328 329 332 333 331 333 335 332 329 330 334 333 327
165 165 166 166 167 168 169 172 180 188 195 201 213 233 240 235 232 232 223 209 204 210 209 207 214 219 221 224 223 209 200 200 205 215 228 235 238 239 244 250 257 265 277 290 299 301 298 288 256 193 172 183 206 257 285 289 299 307 313 322 327 334 342 343 340 339 336 333 329 324 324 328 331 332 335 335 334 336 339 336 330 329 331 331 325
160 160 161 162 162 164 164 167 175 183 188 195 208 221 223 217 218 221 218 209 206 208 208 217 231 232 226 217 203 193 196 204 213 226 239 241 240 241 245 250 255 263 276 285 288 283 255 201 177 168 168 181 218 280 292 300 330 345 348 350 348 349 351 346 340 339 337 335 332 329 329 332 334 336 338 336 335 338 340 338 334 331 331 333 329
154 155 159 163 166 167 167 169 176 179 180 184 191 201 199 189 193 211 239 268 248 224 219 230 242 240 226 210 197 193 201 214 225 238 245 244 244 247 247 248 254 260 270 279 272 228 188 173 168 171 181 200 238 296 1 10 8 6 6 5 2 358 354 349 342 339 337 337 337 336 335 334 334 338 339 337 337 340 340 339 337 335 334 334 331
151 155 162 165 166 166 165 167 169 165 160 156 154 163 169 162 185 236 262 263 247 236 237 244 247 238 218 201 193 198 211 226 238 246 247 244 244 244 244 247 251 255 263 267 223 184 176 171 168 176 181 168 136 91 41 15 6 6 5 5 2 358 353 348 343 338 337 340 341 341 342 340 337 339 340 337 337 340 342 341 339 337 337 336 331
149 155 161 163 163 162 159 158 155 148 141 135 136 153 176 177 211 244 250 249 248 245 242 238 230 215 202 195 196 202 214 232 244 248 246 240 236 236 238 239 242 244 246 210 175 175 177 173 164 154 144 131 120 94 38 14 8 3 360 359 358 354 351 348 342 339 339 342 344 346 348 346 344 342 340 338 336 338 342 344 344 341 339 337 333
152 155 158 159 162 162 158 155 152 147 145 151 161 179 193 191 197 223 235 232 225 214 203 194 188 187 192 196 196 198 211 232 241 242 236 230 229 231 231 228 226 218 194 175 174 175 174 164 150 139 133 126 112 80 35 16 6 359 357 356 352 349 349 346 339 339 342 345 349 352 353 352 349 345 343 341 339 338 341 344 344 342 340 339 337
153 154 156 157 159 161 159 158 158 158 164 176 186 194 198 193 186 181 174 170 174 175 173 173 176 181 184 183 182 193 213 223 225 227 226 227 231 231 222 213 204 191 181 183 180 167 155 151 144 137 134 122 91 53 24 9 359 354 355 353 346 344 345 341 336 340 346 351 356 358 358 357 354 350 347 346 342 339 340 343 343 342 342 341 338
152 155 159 159 161 164 167 169 171 173 179 189 197 201 203 200 190 176 163 158 162 167 169 171 175 178 176 174 178 191 203 206 208 215 219 222 226 224 215 205 195 187 184 185 175 160 156 152 148 148 147 114 55 22 8 0 354 351 351 348 345 344 345 344 345 349 352 357 2 2 1 1 359 353 349 347 344 342 341 344 346 344 342 339 336
160 166 170 171 171 174 180 186 189 187 191 200 209 211 209 203 194 187 182 177 173 171 168 169 172 175 175 175 177 182 186 186 185 189 189 185 198 208 208 204 198 191 184 179 169 161 161 161 161 167 176 132 22 3 358 353 350 349 347 346 347 348 348 351 355 357 359 2 5 4 4 4 2 358 352 348 345 342 340 342 346 346 341 338 336
188 189 186 186 185 184 188 196 201 203 208 218 222 217 208 199 196 195 194 191 185 178 172 170 170 170 171 172 173 172 168 166 168 172 169 163 179 195 204 208 206 200 189 182 173 167 170 177 182 178 174 204 346 352 351 349 348 347 346 348 351 351 352 357 360 1 3 5 5 4 5 5 4 2 357 351 346 342 339 339 343 346 346 344 339
218 206 190 188 194 193 192 198 207 215 222 223 214 203 197 194 194 194 192 190 187 180 176 176 174 170 169 171 173 170 166 168 176 182 177 172 178 191 208 214 211 205 196 188 184 184 188 194 193 188 195 253 334 350 350 347 346 346 350 357 359 357 358 2 4 4 4 4 5 6 7 6 6 4 360 353 348 345 344 344 344 346 350 351 348
203 190 182 186 197 199 193 196 203 207 207 204 197 193 189 187 187 188 187 187 186 184 185 185 181 176 174 175 177 175 173 177 187 197 203 209 213 217 223 214 203 200 199 195 196 200 196 187 188 198 213 267 336 350 349 346 344 346 357 8 8 4 3 3 4 4 4 5 7 7 7 7 6 5 3 357 350 347 348 349 349 348 350 352 352
140 146 157 160 157 154 162 175 182 184 187 189 190 189 186 182 183 186 187 187 189 193 192 189 187 186 183 181 180 180 182 189 200 208 213 221 228 232 229 213 198 197 199 198 198 198 193 186 192 208 225 276 338 348 349 347 344 351 9 21 18 8 6 7 7 7 6 6 7 7 8 8 6 5 5 3 357 353 351 351 354 355 352 349 348
104 103 110 117 120 126 138 154 166 173 178 183 188 190 190 188 189 190 190 190 194 197 196 195 196 196 192 188 188 189 192 200 208 215 220 228 236 238 232 219 207 202 200 197 195 194 193 194 201 213 234 295 338 347 349 348 348 358 16 31 25 13 13 15 13 10 7 6 6 7 8 8 6 6 6 4 0 358 357 356 359 2 1 355 351
99 99 112 123 128 131 135 142 153 165 175 185 193 197 196 196 197 198 197 197 199 200 203 207 208 204 198 198 200 202 203 208 215 222 230 238 245 247 241 229 216 207 200 196 193 194 198 205 211 220 243 295 333 344 348 347 349 3 21 33 25 18 18 18 16 14 9 6 4 6 7 7 7 7 6 3 3 5 4 3 3 5 8 7 2
128 152 151 143 142 141 136 135 141 152 165 177 190 197 201 203 203 201 201 203 206 208 210 213 212 207 203 205 208 209 212 218 223 229 234 241 249 257 252 234 217 208 203 200 198 201 207 211 215 227 253 300 331 342 345 342 345 7 28 44 25 22 21 20 19 17 13 8 5 5 6 5 5 6 6 6 6 7 8 8 8 9 12 15 13
145 150 147 143 144 140 133 132 137 146 156 171 189 200 208 211 207 206 209 212 212 212 211 210 211 209 207 209 211 212 216 223 229 233 237 240 250 263 258 232 212 203 202 204 204 207 211 214 220 234 259 301 328 338 343 343 350 10 25 27 35 28 22 20 21 17 13 10 9 8 7 5 4 4 7 8 8 9 11 12 12 11 12 15 17
140 139 136 135 133 126 124 133 147 157 167 181 192 196 203 210 209 211 217 218 216 215 213 215 218 216 211 209 211 213 217 224 229 233 240 245 251 258 245 219 204 200 202 202 198 199 207 217 225 234 261 298 322 338 349 355 3 22 18 289 2 22 18 17 19 16 10 9 9 9 8 7 4 3 7 9 9 10 13 15 15 14 13 15 19
134 132 132 131 130 132 140 150 156 159 164 178 194 202 217 228 221 216 221 223 224 227 229 230 232 229 220 216 215 216 220 226 230 235 243 248 247 240 222 208 202 202 200 196 195 200 211 222 227 235 262 286 306 352 16 22 25 25 4 307 303 355 9 12 13 11 7 6 7 8 8 7 5 5 7 9 10 12 15 17 18 16 15 15 18
135 135 136 136 140 147 152 155 159 165 175 204 226 236 247 246 233 228 233 236 236 239 239 238 238 235 229 224 221 220 222 226 229 237 245 246 238 224 213 207 206 205 202 200 205 213 217 220 224 237 261 261 235 59 45 42 41 27 5 341 308 322 353 3 6 5 5 4 5 7 8 7 6 7 8 9 11 15 19 21 23 22 20 17 18
137 135 133 134 140 148 154 159 167 178 195 212 217 229 246 244 233 231 234 236 236 238 239 239 238 236 232 227 223 220 221 222 226 235 242 241 231 220 213 208 206 208 212 214 217 220 220 218 219 226 234 213 171 115 64 50 45 34 12 354 328 308 326 349 357 0 2 2 3 5 5 5 6 9 13 14 15 18 23 26 27 28 28 25 24
136 132 130 133 139 148 157 166 176 188 198 199 208 233 250 250 244 239 237 236 237 240 242 244 243 241 237 231 225 221 220 219 223 232 238 236 227 219 214 209 207 212 219 222 222 222 220 216 215 217 212 187 157 124 78 54 46 39 24 5 340 308 301 320 339 350 354 357 0 2 2 3 6 11 17 20 21 24 29 31 31 32 35 34 33
134 134 138 143 149 156 166 176 187 200 212 226 244 256 259 260 258 255 251 248 247 248 251 251 249 245 240 234 228 223 221 220 223 230 234 232 225 220 216 214 214 218 224 226 225 223 219 214 214 216 204 184 167 144 96 61 50 44 35 20 358 318 289 290 308 333 343 349 355 358 358 2 8 14 21 25 27 30 33 35 35 38 42 42 39
138 139 143 147 150 154 158 163 174 197 224 244 258 266 270 269 266 263 259 255 251 251 251 251 249 245 241 236 230 227 223 222 224 228 230 228 224 220 217 216 216 219 223 225 224 222 219 216 216 214 203 191 186 178 136 67 47 40 33 22 10 347 295 267 271 304 329 340 347 350 353 2 10 18 27 32 34 36 38 38 39 43 47 48 46
149 149 150 151 148 143 139 138 141 148 159 215 285 296 294 286 279 273 265 258 253 250 249 249 248 246 242 239 235 231 228 225 225 226 226 223 219 217 216 215 215 217 220 222 222 221 220 219 217 215 207 201 198 196 184 75 31 24 21 15 8 358 321 256 247 273 314 334 341 341 349 4 15 24 34 40 42 42 42 42 43 48 51 52 51